KO4DYK Weather Reports


time (UTC)temp
C
wind
direction
speed
KPH
gust
KPH
rain 1hr
cm
rain 24hr
cm
rain mn
cm
humidity
%
barometer
mb
20260906125805 25 172 1.6 3.2 0.00 0.00 0.00 93 1015.1
20260906125306 25 161 0.0 3.2 0.00 0.00 0.00 94 1015.1
20260906124758 25 167 0.0 3.2 0.00 0.00 0.00 95 1014.9
20260906124254 24 141 1.6 8.0 0.00 0.00 0.00 97 1015.2
20260906123753 24 158 0.0 0.0 0.00 0.00 0.00 98 1015.0
20260906123248 23 152 0.0 0.0 0.00 0.00 0.00 98 1015.0
20260906122747 23 159 0.0 1.6 0.00 0.00 0.00 98 1014.9
20260906122243 23 166 0.0 0.0 0.00 0.00 0.00 99 1015.0
20260906121739 23 166 0.0 0.0 0.00 0.00 0.00 98 1014.9
20260906121236 23 161 0.0 0.0 0.00 0.00 0.00 98 1015.0
20260906120731 23 153 0.0 0.0 0.00 0.00 0.00 97 1015.1
20260906120228 23 156 0.0 0.0 0.00 0.00 0.00 97 1015.1
20260906115723 23 158 0.0 0.0 0.00 0.00 0.00 97 1014.9
20260906115218 24 167 0.0 1.6 0.00 0.00 0.00 96 1015.1
20260906114717 24 152 0.0 1.6 0.00 0.00 0.00 95 1014.9
20260906114212 25 150 0.0 3.2 0.00 0.00 0.00 94 1014.9
20260906113708 25 160 0.0 0.0 0.00 0.00 0.00 94 1015.0
20260906113207 25 155 1.6 8.0 0.00 0.00 0.00 94 1015.0
20260906112706 25 148 3.2 4.8 0.00 0.00 0.00 95 1015.1
20260906112204 24 165 1.6 9.7 0.00 0.00 0.00 95 1015.3
20260906111703 24 169 3.2 3.2 0.00 0.00 0.00 96 1015.1
20260906111157 24 156 0.0 0.0 0.00 0.00 0.00 97 1014.9
20260906110653 24 154 0.0 0.0 0.00 0.00 0.00 97 1014.7
20260906110148 24 160 0.0 0.0 0.00 0.00 0.00 97 1014.7
20260906105648 24 164 1.6 3.2 0.00 0.00 0.00 98 1014.6
20260906105144 23 155 0.0 1.6 0.00 0.00 0.00 98 1014.4
20260906104643 23 182 1.6 3.2 0.00 0.00 0.00 99 1014.5
20260906104143 23 163 1.6 3.2 0.00 0.00 0.00 99 1014.4
20260906103641 23 183 3.2 3.2 0.00 0.00 0.00 99 1014.6
20260906103136 23 149 1.6 3.2 0.00 0.00 0.00 99 1014.7
20260906102631 23 153 0.0 1.6 0.00 0.00 0.00 99 1014.8
20260906102126 22 150 0.0 3.2 0.00 0.00 0.00 99 1014.7
20260906101626 22 155 0.0 0.0 0.00 0.00 0.00 99 1013.9
20260906101125 22 159 0.0 0.0 0.00 0.00 0.00 99 1013.8
20260906100621 22 139 0.0 0.0 0.00 0.00 0.00 99 1013.6
20260906100116 23 159 0.0 0.0 0.00 0.00 0.00 99 1013.6
20260906095616 23 157 0.0 0.0 0.00 0.00 0.00 99 1013.6
20260906095111 23 160 0.0 1.6 0.00 0.00 0.00 99 1013.7
20260906094610 23 148 0.0 0.0 0.00 0.00 0.00 99 1013.8
20260906094106 22 144 0.0 0.0 0.00 0.00 0.00 99 1013.7
20260906093602 23 152 0.0 0.0 0.00 0.00 0.00 99 1013.4
20260906093057 23 151 0.0 0.0 0.00 0.00 0.00 99 1013.6
20260906092552 23 138 0.0 0.0 0.00 0.00 0.00 99 1013.6
20260906092047 23 150 0.0 0.0 0.00 0.00 0.00 99 1013.7
20260906091543 22 156 0.0 0.0 0.00 0.00 0.00 99 1013.5
20260906091039 22 153 0.0 0.0 0.00 0.00 0.00 99 1013.4
20260906090540 22 155 0.0 0.0 0.00 0.00 0.00 99 1013.6
20260906090039 22 155 0.0 0.0 0.00 0.00 0.00 99 1013.5
20260906085538 22 151 0.0 0.0 0.00 0.00 0.00 99 1013.3
20260906085038 22 159 0.0 0.0 0.00 0.00 0.00 99 1013.4
20260906084533 22 156 0.0 0.0 0.00 0.00 0.00 99 1013.6
20260906084031 22 157 0.0 0.0 0.00 0.00 0.00 99 1013.4
20260906083528 22 156 0.0 0.0 0.00 0.00 0.00 99 1013.4
20260906083027 23 177 0.0 0.0 0.00 0.00 0.00 99 1013.5
20260906082522 23 156 0.0 0.0 0.00 0.00 0.00 99 1013.4
20260906082018 23 142 0.0 1.6 0.00 0.00 0.00 99 1013.5
20260906081514 22 163 1.6 3.2 0.00 0.00 0.00 99 1013.4
20260906081009 23 162 0.0 0.0 0.00 0.00 0.00 99 1013.2
20260906080506 23 162 0.0 0.0 0.00 0.00 0.00 99 1013.3
20260906080001 23 162 0.0 0.0 0.00 0.00 0.00 99 1013.3
20260906075456 23 161 0.0 0.0 0.00 0.00 0.00 99 1013.4
20260906074951 23 161 0.0 0.0 0.00 0.00 0.00 99 1013.3
20260906074451 23 162 0.0 0.0 0.00 0.00 0.00 99 1013.5
20260906073949 23 162 0.0 0.0 0.00 0.00 0.00 99 1013.4
20260906073444 23 161 0.0 0.0 0.00 0.00 0.00 99 1013.3
20260906072940 23 161 0.0 0.0 0.00 0.00 0.00 99 1013.3
20260906072435 23 161 0.0 0.0 0.00 0.00 0.00 99 1013.4
20260906071931 23 161 0.0 0.0 0.00 0.00 0.00 99 1013.4
20260906071427 23 161 0.0 0.0 0.00 0.00 0.00 99 1013.2
20260906070923 23 161 0.0 0.0 0.00 0.00 0.00 99 1013.3
20260906070419 23 161 0.0 0.0 0.00 0.00 0.00 99 1013.3
20260906065915 23 160 0.0 0.0 0.00 0.00 0.00 99 1013.1
20260906065408 23 160 0.0 0.0 0.00 0.00 0.00 99 1013.0
20260906064904 23 160 0.0 0.0 0.00 0.00 0.00 99 1013.1
20260906064401 23 160 0.0 0.0 0.00 0.00 0.00 99 1013.2
20260906063900 23 160 0.0 0.0 0.00 0.00 0.00 99 1013.3
20260906063355 23 161 0.0 0.0 0.00 0.00 0.00 99 1013.1
20260906062850 23 161 0.0 0.0 0.00 0.00 0.00 99 1013.3
20260906062349 23 160 0.0 0.0 0.00 0.00 0.00 99 1013.4
20260906061845 23 160 0.0 0.0 0.00 0.00 0.00 99 1013.5
20260906061342 23 161 0.0 0.0 0.00 0.00 0.00 99 1013.4
20260906060836 23 160 0.0 0.0 0.00 0.00 0.00 99 1013.3
20260906060334 23 160 0.0 0.0 0.00 0.00 0.00 99 1013.7
20260906055829 23 161 0.0 0.0 0.00 0.00 0.00 99 1013.7
20260906055325 23 160 0.0 0.0 0.00 0.00 0.00 98 1013.7
20260906054820 23 161 0.0 0.0 0.00 0.00 0.00 98 1013.8
20260906054315 23 160 0.0 0.0 0.00 0.00 0.00 98 1013.7
20260906053812 24 160 0.0 0.0 0.00 0.00 0.00 98 1013.8
20260906053307 24 160 0.0 0.0 0.00 0.00 0.00 97 1013.9
20260906052802 24 160 0.0 0.0 0.00 0.00 0.00 97 1013.8
20260906052258 24 160 0.0 0.0 0.00 0.00 0.00 97 1014.0
20260906051755 24 160 0.0 0.0 0.00 0.00 0.00 97 1013.8
20260906051254 24 160 0.0 0.0 0.00 0.00 0.00 97 1013.8
20260906050750 24 160 0.0 0.0 0.00 0.00 0.00 96 1013.9
20260906050245 25 160 0.0 0.0 0.00 0.00 0.00 96 1014.0
20260906045744 25 159 0.0 0.0 0.00 0.00 0.00 96 1013.7
20260906045239 25 159 0.0 0.0 0.00 0.00 0.00 96 1013.8
20260906044734 25 159 0.0 0.0 0.00 0.00 0.00 96 1013.7
20260906044229 25 159 0.0 0.0 0.00 0.00 0.00 95 1013.7
20260906043726 25 160 0.0 0.0 0.00 0.00 0.00 96 1013.8
20260906043222 25 160 0.0 0.0 0.00 0.00 0.00 96 1013.6
20260906042721 25 160 0.0 0.0 0.00 0.00 0.00 96 1013.8
20260906042220 25 160 0.0 0.0 0.00 0.00 0.00 95 1013.7
20260906041715 25 160 0.0 0.0 0.00 0.00 0.00 95 1013.7
20260906041211 25 159 0.0 0.0 0.00 0.00 0.00 95 1013.9
20260906040706 25 158 0.0 0.0 0.00 0.00 0.00 95 1013.7
20260906040202 25 158 0.0 0.0 0.00 0.00 0.00 95 1013.6
20260906035658 25 159 0.0 0.0 0.00 0.00 0.00 95 1013.6
20260906035153 25 158 0.0 0.0 0.00 0.00 0.00 94 1013.7
20260906034653 25 154 0.0 0.0 0.00 0.00 0.00 93 1013.7
20260906034148 25 152 0.0 0.0 0.00 0.00 0.00 94 1013.7
20260906033643 25 164 0.0 0.0 0.00 0.00 0.00 94 1013.7
20260906033137 25 164 0.0 0.0 0.00 0.00 0.00 94 1013.5
20260906032634 25 164 0.0 0.0 0.00 0.00 0.00 94 1013.5
20260906032134 25 164 0.0 0.0 0.00 0.00 0.00 94 1013.7
20260906031629 25 164 0.0 0.0 0.00 0.00 0.00 94 1013.5
20260906031125 25 164 0.0 0.0 0.00 0.00 0.00 94 1013.5
20260906030624 26 164 0.0 0.0 0.00 0.00 0.00 94 1013.4
20260906030119 26 165 0.0 0.0 0.00 0.00 0.00 93 1013.5
20260906025619 26 165 0.0 0.0 0.00 0.00 0.00 93 1013.2
20260906025118 26 165 0.0 0.0 0.00 0.00 0.00 92 1013.5
20260906024612 26 163 0.0 0.0 0.00 0.00 0.00 92 1013.3
20260906024107 26 162 0.0 0.0 0.00 0.00 0.00 91 1013.3
20260906023603 26 163 0.0 0.0 0.00 0.00 0.00 91 1013.4
20260906023057 26 163 0.0 0.0 0.00 0.00 0.00 90 1013.2
20260906022553 26 163 0.0 0.0 0.00 0.00 0.00 90 1013.3
20260906022048 26 163 0.0 0.0 0.00 0.00 0.00 90 1013.2
20260906021543 26 164 0.0 0.0 0.00 0.00 0.00 90 1013.4
20260906021043 26 165 0.0 0.0 0.00 0.00 0.00 89 1013.1
20260906020543 27 162 0.0 0.0 0.00 0.00 0.00 88 1013.1
20260906020042 27 163 0.0 0.0 0.00 0.00 0.00 88 1013.1
20260906015541 27 162 0.0 0.0 0.00 0.00 0.00 87 1013.0
20260906015035 27 162 0.0 0.0 0.00 0.00 0.00 87 1013.0
20260906014530 27 162 0.0 0.0 0.00 0.00 0.00 86 1013.0
20260906014026 27 163 0.0 0.0 0.00 0.00 0.00 86 1013.1
20260906013521 27 162 0.0 0.0 0.00 0.00 0.00 84 1012.9
20260906013017 28 162 0.0 0.0 0.00 0.00 0.00 84 1012.9
20260906012512 28 160 0.0 0.0 0.00 0.00 0.00 83 1012.9
20260906012012 28 161 0.0 0.0 0.00 0.00 0.00 82 1012.8
20260906011508 28 160 0.0 0.0 0.00 0.00 0.00 81 1012.7
20260906011008 28 161 0.0 0.0 0.00 0.00 0.00 83 1012.4
20260906010503 28 161 0.0 0.0 0.00 0.00 0.00 82 1012.5
20260906005959 28 160 0.0 0.0 0.00 0.00 0.00 83 1012.6
20260906005458 29 159 0.0 1.6 0.00 0.00 0.00 81 1012.3
20260906004957 29 158 0.0 0.0 0.00 0.00 0.00 79 1012.4
20260906004457 30 158 0.0 0.0 0.00 0.00 0.00 78 1012.4
20260906003952 30 158 0.0 0.0 0.00 0.00 0.00 76 1012.4
20260906003447 30 158 0.0 0.0 0.00 0.00 0.00 75 1012.3
20260906002942 30 158 0.0 0.0 0.00 0.00 0.00 73 1012.1
20260906002442 31 158 0.0 0.0 0.00 0.00 0.00 72 1012.3
20260906001937 31 157 0.0 0.0 0.00 0.00 0.00 71 1012.4
20260906001433 31 158 0.0 0.0 0.00 0.00 0.00 70 1012.3
20260906000928 32 158 0.0 0.0 0.00 0.00 0.00 68 1012.2
20260906000425 32 157 0.0 0.0 0.00 0.00 0.00 66 1012.2
20260905235919 33 157 0.0 0.0 0.00 0.00 0.00 66 1012.2
20260905235418 33 157 0.0 0.0 0.00 0.00 0.00 67 1012.2
20260905234913 33 159 0.0 0.0 0.00 0.00 0.00 65 1012.5
20260905234409 34 159 0.0 0.0 0.00 0.00 0.00 63 1012.4
20260905233903 34 150 0.0 0.0 0.00 0.00 0.00 62 1012.5
20260905233358 35 151 0.0 0.0 0.00 0.00 0.00 62 1012.4
20260905232858 35 155 0.0 0.0 0.00 0.00 0.00 61 1012.3
20260905232354 35 151 0.0 0.0 0.00 0.00 0.00 58 1012.1
20260905231849 36 155 0.0 0.0 0.00 0.00 0.00 57 1012.3
20260905231344 36 139 0.0 1.6 0.00 0.00 0.00 55 1012.3
20260905230841 36 155 0.0 1.6 0.00 0.00 0.00 52 1012.2
20260905230338 36 157 0.0 1.6 0.00 0.00 0.00 52 1012.1
20260905225838 36 157 0.0 0.0 0.00 0.00 0.00 51 1012.4
20260905225333 36 152 0.0 1.6 0.00 0.00 0.00 52 1012.3
20260905224828 37 150 1.6 4.8 0.00 0.00 0.00 48 1012.3
20260905224324 37 150 0.0 1.6 0.00 0.00 0.00 48 1012.4
20260905223824 37 160 1.6 4.8 0.00 0.00 0.00 47 1012.3
20260905223322 37 176 3.2 4.8 0.00 0.00 0.00 47 1012.4
20260905222816 38 104 3.2 3.2 0.00 0.00 0.00 47 1012.4
20260905222315 38 142 0.0 0.0 0.00 0.00 0.00 46 1012.5
20260905221811 38 131 1.6 4.8 0.00 0.00 0.00 45 1012.3
20260905221308 39 150 0.0 1.6 0.00 0.00 0.00 44 1012.5
20260905220803 39 148 1.6 1.6 0.00 0.00 0.00 44 1012.5
20260905220300 39 128 0.0 3.2 0.00 0.00 0.00 45 1012.4
20260905215758 38 165 1.6 3.2 0.00 0.00 0.00 46 1012.3
20260905215255 38 79 3.2 3.2 0.00 0.00 0.00 46 1012.5
20260905214750 39 37 1.6 3.2 0.00 0.00 0.00 45 1012.5
20260905214246 40 159 1.6 3.2 0.00 0.00 0.00 45 1012.6
20260905213741 39 148 3.2 3.2 0.00 0.00 0.00 45 1012.5
20260905213237 38 148 1.6 1.6 0.00 0.00 0.00 47 1012.6
20260905212732 37 161 1.6 1.6 0.00 0.00 0.00 49 1012.5
20260905212231 37 142 1.6 3.2 0.00 0.00 0.00 49 1012.7
20260905211731 38 147 1.6 4.8 0.00 0.00 0.00 47 1012.6
20260905211226 39 171 1.6 3.2 0.00 0.00 0.00 45 1012.4
20260905210723 39 150 1.6 9.7 0.00 0.00 0.00 45 1012.5
20260905210223 38 131 3.2 4.8 0.00 0.00 0.00 46 1012.4
20260905205721 38 140 1.6 9.7 0.00 0.00 0.00 45 1012.5
20260905205216 38 44 4.8 8.0 0.00 0.00 0.00 42 1012.6
20260905204716 40 161 3.2 4.8 0.00 0.00 0.00 41 1012.7
20260905204212 41 187 6.4 9.7 0.00 0.00 0.00 40 1012.7
20260905203706 40 138 1.6 8.0 0.00 0.00 0.00 41 1013.0
20260905203201 40 116 1.6 8.0 0.00 0.00 0.00 41 1013.0
20260905202657 40 167 3.2 4.8 0.00 0.00 0.00 41 1013.1
20260905202152 38 150 4.8 4.8 0.00 0.00 0.00 42 1013.2
20260905201647 38 64 11.3 14.5 0.00 0.00 0.00 42 1013.0
20260905201147 38 73 4.8 9.7 0.00 0.00 0.00 41 1013.2
20260905200642 40 59 3.2 8.0 0.00 0.00 0.00 41 1013.2
20260905200138 40 135 3.2 4.8 0.00 0.00 0.00 40 1013.3
20260905195636 40 195 4.8 8.0 0.00 0.00 0.00 40 1013.6
20260905195131 41 159 1.6 3.2 0.00 0.00 0.00 39 1013.7
20260905194626 40 87 0.0 3.2 0.00 0.00 0.00 40 1013.6
20260905194125 39 178 4.8 9.7 0.00 0.00 0.00 42 1013.8
20260905193621 40 63 6.4 9.7 0.00 0.00 0.00 39 1013.8
20260905193115 39 149 1.6 3.2 0.00 0.00 0.00 40 1013.8
20260905192611 40 158 1.6 4.8 0.00 0.00 0.00 39 1014.2
20260905192107 40 139 3.2 8.0 0.00 0.00 0.00 40 1014.2
20260905191606 39 140 4.8 8.0 0.00 0.00 0.00 41 1014.1
20260905191105 37 156 0.0 4.8 0.00 0.00 0.00 44 1014.1
20260905190603 39 26 9.7 14.5 0.00 0.00 0.00 43 1014.3
20260905185601 40 148 1.6 4.8 0.00 0.00 0.00 42 1014.4
20260905185056 40 344 6.4 11.3 0.00 0.00 0.00 41 1014.4
20260905184551 40 148 1.6 4.8 0.00 0.00 0.00 42 1014.5
20260905184050 39 120 4.8 4.8 0.00 0.00 0.00 42 1014.7
20260905183549 38 83 3.2 4.8 0.00 0.00 0.00 43 1014.4
20260905183045 40 184 1.6 4.8 0.00 0.00 0.00 42 1015.0
20260905182538 40 148 4.8 8.0 0.00 0.00 0.00 42 1014.6
20260905182033 40 164 1.6 3.2 0.00 0.00 0.00 43 1014.5
20260905181528 39 138 1.6 9.7 0.00 0.00 0.00 47 1014.6
20260905181027 37 151 1.6 8.0 0.00 0.00 0.00 49 1014.7
20260905180527 37 161 1.6 9.7 0.00 0.00 0.00 48 1014.8
20260905180023 37 154 1.6 9.7 0.00 0.00 0.00 47 1014.9
20260905175521 39 132 1.6 1.6 0.00 0.00 0.00 44 1015.0
20260905175018 37 179 3.2 8.0 0.00 0.00 0.00 46 1014.9
20260905174513 36 106 4.8 11.3 0.00 0.00 0.00 49 1015.0
20260905174008 36 46 8.0 9.7 0.00 0.00 0.00 50 1014.9
20260905173504 36 111 1.6 12.9 0.00 0.00 0.00 50 1015.0
20260905172959 36 164 0.0 12.9 0.00 0.00 0.00 50 1015.0
20260905172458 37 39 8.0 17.7 0.00 0.00 0.00 49 1015.0
20260905171953 37 168 3.2 9.7 0.00 0.00 0.00 48 1015.1
20260905171450 37 181 6.4 8.0 0.00 0.00 0.00 48 1015.2
20260905170946 36 160 3.2 9.7 0.00 0.00 0.00 52 1015.3
20260905170443 37 172 1.6 3.2 0.00 0.00 0.00 50 1015.3
20260905165942 38 138 4.8 4.8 0.00 0.00 0.00 50 1015.5
20260905165437 38 139 6.4 9.7 0.00 0.00 0.00 51 1015.5
20260905164932 37 179 3.2 3.2 0.00 0.00 0.00 50 1015.7
20260905164432 37 153 0.0 3.2 0.00 0.00 0.00 51 1015.8
20260905163926 38 89 3.2 3.2 0.00 0.00 0.00 53 1015.7
20260905163424 38 140 1.6 3.2 0.00 0.00 0.00 52 1015.7
20260905162919 36 156 1.6 3.2 0.00 0.00 0.00 54 1015.9
20260905162415 35 110 0.0 4.8 0.00 0.00 0.00 58 1016.0
20260905161909 36 98 4.8 8.0 0.00 0.00 0.00 55 1016.0
20260905161409 36 64 1.6 3.2 0.00 0.00 0.00 54 1016.1
20260905160906 36 158 3.2 4.8 0.00 0.00 0.00 52 1016.1
20260905160400 36 151 0.0 1.6 0.00 0.00 0.00 54 1016.1
20260905155855 36 53 4.8 4.8 0.00 0.00 0.00 56 1016.2
20260905155354 35 149 0.0 4.8 0.00 0.00 0.00 58 1016.2
20260905154853 35 111 1.6 3.2 0.00 0.00 0.00 57 1016.2
20260905154349 35 100 0.0 1.6 0.00 0.00 0.00 58 1016.2
20260905153844 35 100 0.0 1.6 0.00 0.00 0.00 60 1016.2
20260905153341 35 94 0.0 1.6 0.00 0.00 0.00 60 1016.3
20260905152840 33 72 1.6 4.8 0.00 0.00 0.00 63 1016.3
20260905152339 34 96 3.2 4.8 0.00 0.00 0.00 63 1016.3
20260905151835 34 137 1.6 3.2 0.00 0.00 0.00 62 1016.5
20260905151331 33 41 3.2 4.8 0.00 0.00 0.00 65 1016.4
20260905150830 35 50 1.6 3.2 0.00 0.00 0.00 60 1016.3
20260905150325 34 146 0.0 0.0 0.00 0.00 0.00 62 1016.3
20260905145823 33 165 3.2 4.8 0.00 0.00 0.00 65 1016.2
20260905145322 33 154 0.0 1.6 0.00 0.00 0.00 71 1016.4
20260905144821 32 144 0.0 1.6 0.00 0.00 0.00 74 1016.3
20260905144317 31 140 1.6 3.2 0.00 0.00 0.00 77 1016.4
20260905143815 31 121 3.2 3.2 0.00 0.00 0.00 78 1016.3
20260905143310 31 76 3.2 3.2 0.00 0.00 0.00 79 1016.3
20260905142810 31 94 1.6 4.8 0.00 0.00 0.00 79 1016.3
20260905142309 30 148 0.0 0.0 0.00 0.00 0.00 80 1016.3
20260905141806 30 134 1.6 3.2 0.00 0.00 0.00 82 1016.2
20260905141301 30 129 1.6 3.2 0.00 0.00 0.00 83 1016.4
20260905140756 29 132 1.6 3.2 0.00 0.00 0.00 85 1016.1
20260905140256 29 136 0.0 1.6 0.00 0.00 0.00 85 1016.2
20260905135755 28 132 1.6 1.6 0.00 0.00 0.00 85 1016.0
20260905135251 29 138 0.0 0.0 0.00 0.00 0.00 86 1016.1
20260905134751 28 148 0.0 0.0 0.00 0.00 0.00 88 1016.2
20260905134244 28 151 0.0 0.0 0.00 0.00 0.00 90 1016.3
20260905133739 27 150 0.0 0.0 0.00 0.00 0.00 93 1016.3
20260905133234 27 179 0.0 0.0 0.00 0.00 0.00 92 1016.1
20260905132733 26 158 0.0 0.0 0.00 0.00 0.00 95 1016.3
20260905132229 26 156 0.0 0.0 0.00 0.00 0.00 99 1016.4
20260905131725 25 159 0.0 0.0 0.00 0.00 0.00 99 1016.4
20260905131220 25 159 0.0 0.0 0.00 0.00 0.00 99 1016.4
20260905130720 25 151 0.0 0.0 0.00 0.00 0.00 99 1016.5
20260905130219 25 156 0.0 0.0 0.00 0.00 0.00 99 1016.3